| time (UTC) | temp F | wind direction | speed MPH | gust MPH | rain 1hr in | rain 24hr in | rain mn in | humidity % | barometer mb |
| 20260505114109 | 55 | 300 | 0.0 | 0.0 | 0.00 | 0.00 | 0.00 | 76 | 1009.5 |
| 20260505113605 | 54 | 315 | 0.0 | 0.0 | 0.00 | 0.00 | 0.00 | 79 | 1009.6 |
| 20260505113101 | 54 | 307 | 1.0 | 1.0 | 0.00 | 0.00 | 0.00 | 79 | 1009.6 |
| 20260505112558 | 53 | 286 | 1.0 | 1.0 | 0.00 | 0.00 | 0.00 | 80 | 1009.6 |
| 20260505112056 | 53 | 285 | 0.0 | 0.0 | 0.00 | 0.00 | 0.00 | 82 | 1009.6 |
| 20260505111550 | 52 | 314 | 1.0 | 1.0 | 0.00 | 0.00 | 0.00 | 82 | 1009.5 |
| 20260505111046 | 52 | 217 | 1.0 | 2.0 | 0.00 | 0.00 | 0.00 | 83 | 1009.8 |
| 20260505110543 | 52 | 326 | 1.0 | 2.0 | 0.00 | 0.00 | 0.00 | 82 | 1009.5 |
| 20260505102015 | 47 | 303 | 0.0 | 1.0 | 0.00 | 0.00 | 0.00 | 92 | 1009.0 |
| 20260505101514 | 47 | 282 | 0.0 | 0.0 | 0.00 | 0.00 | 0.00 | 92 | 1009.2 |
| 20260505101010 | 47 | 282 | 0.0 | 0.0 | 0.00 | 0.00 | 0.00 | 92 | 1009.0 |
| 20260505100507 | 46 | 281 | 0.0 | 0.0 | 0.00 | 0.00 | 0.00 | 92 | 1009.2 |
| 20260505100003 | 47 | 284 | 0.0 | 0.0 | 0.00 | 0.00 | 0.00 | 93 | 1009.0 |
| 20260505095500 | 47 | 284 | 0.0 | 0.0 | 0.00 | 0.00 | 0.00 | 93 | 1008.8 |
| 20260505094956 | 47 | 284 | 0.0 | 0.0 | 0.00 | 0.00 | 0.00 | 93 | 1008.8 |
| 20260505094453 | 47 | 284 | 0.0 | 1.0 | 0.00 | 0.00 | 0.00 | 92 | 1009.3 |
| 20260505093949 | 47 | 284 | 0.0 | 0.0 | 0.00 | 0.00 | 0.00 | 92 | 1009.0 |
| 20260505093446 | 47 | 283 | 0.0 | 0.0 | 0.00 | 0.00 | 0.00 | 92 | 1009.1 |
| 20260505092943 | 47 | 286 | 0.0 | 0.0 | 0.00 | 0.00 | 0.00 | 92 | 1009.1 |
| 20260505092441 | 47 | 286 | 0.0 | 0.0 | 0.00 | 0.00 | 0.00 | 92 | 1008.9 |
| 20260505091938 | 47 | 286 | 0.0 | 1.0 | 0.00 | 0.00 | 0.00 | 91 | 1008.6 |
| 20260505091435 | 47 | 286 | 0.0 | 0.0 | 0.00 | 0.00 | 0.00 | 91 | 1008.8 |
| 20260505090933 | 47 | 286 | 0.0 | 0.0 | 0.00 | 0.00 | 0.00 | 91 | 1008.7 |
| 20260505090431 | 47 | 286 | 0.0 | 0.0 | 0.00 | 0.00 | 0.00 | 91 | 1008.5 |
| 20260505085928 | 47 | 286 | 0.0 | 0.0 | 0.00 | 0.00 | 0.00 | 90 | 1008.4 |
| 20260505085426 | 47 | 286 | 0.0 | 0.0 | 0.00 | 0.00 | 0.00 | 90 | 1008.7 |
| 20260505084924 | 48 | 286 | 0.0 | 0.0 | 0.00 | 0.00 | 0.00 | 90 | 1008.5 |
| 20260505084422 | 48 | 286 | 0.0 | 0.0 | 0.00 | 0.00 | 0.00 | 90 | 1008.6 |
| 20260505083920 | 48 | 285 | 0.0 | 0.0 | 0.00 | 0.00 | 0.00 | 90 | 1008.7 |
| 20260505083417 | 48 | 285 | 0.0 | 0.0 | 0.00 | 0.00 | 0.00 | 89 | 1008.9 |
| 20260505082913 | 48 | 286 | 0.0 | 0.0 | 0.00 | 0.00 | 0.00 | 89 | 1008.9 |
| 20260505082409 | 48 | 286 | 1.0 | 1.0 | 0.00 | 0.00 | 0.00 | 89 | 1008.8 |
| 20260505081906 | 48 | 286 | 0.0 | 0.0 | 0.00 | 0.00 | 0.00 | 89 | 1008.7 |
| 20260505081403 | 48 | 286 | 0.0 | 0.0 | 0.00 | 0.00 | 0.00 | 89 | 1008.8 |
| 20260505080859 | 48 | 319 | 0.0 | 0.0 | 0.00 | 0.00 | 0.00 | 89 | 1008.5 |
| 20260505080355 | 48 | 319 | 0.0 | 0.0 | 0.00 | 0.00 | 0.00 | 89 | 1008.7 |
| 20260505075851 | 48 | 319 | 0.0 | 0.0 | 0.00 | 0.00 | 0.00 | 89 | 1008.8 |
| 20260505075348 | 48 | 319 | 0.0 | 0.0 | 0.00 | 0.00 | 0.00 | 89 | 1008.9 |
| 20260505074845 | 48 | 319 | 0.0 | 0.0 | 0.00 | 0.00 | 0.00 | 89 | 1008.9 |
| 20260505074342 | 48 | 319 | 0.0 | 0.0 | 0.00 | 0.00 | 0.00 | 89 | 1008.5 |
| 20260505073840 | 48 | 319 | 0.0 | 0.0 | 0.00 | 0.00 | 0.00 | 89 | 1008.5 |
| 20260505073338 | 48 | 319 | 0.0 | 0.0 | 0.00 | 0.00 | 0.00 | 89 | 1008.6 |
| 20260505072834 | 48 | 320 | 0.0 | 0.0 | 0.00 | 0.00 | 0.00 | 89 | 1008.9 |
| 20260505072330 | 48 | 320 | 0.0 | 0.0 | 0.00 | 0.00 | 0.00 | 89 | 1008.8 |
| 20260505071827 | 48 | 320 | 0.0 | 0.0 | 0.00 | 0.00 | 0.00 | 89 | 1008.8 |
| 20260505071323 | 48 | 320 | 0.0 | 0.0 | 0.00 | 0.00 | 0.00 | 89 | 1008.7 |
| 20260505070821 | 48 | 320 | 0.0 | 0.0 | 0.00 | 0.00 | 0.00 | 88 | 1008.7 |
| 20260505070318 | 48 | 320 | 0.0 | 0.0 | 0.00 | 0.00 | 0.00 | 88 | 1008.6 |
| 20260505065813 | 48 | 320 | 0.0 | 0.0 | 0.00 | 0.00 | 0.00 | 88 | 1008.7 |
| 20260505065310 | 48 | 320 | 0.0 | 0.0 | 0.00 | 0.00 | 0.00 | 88 | 1008.9 |
| 20260505064807 | 48 | 320 | 0.0 | 0.0 | 0.00 | 0.00 | 0.00 | 88 | 1008.8 |
| 20260505064304 | 48 | 320 | 0.0 | 0.0 | 0.00 | 0.00 | 0.00 | 88 | 1008.8 |
| 20260505063802 | 49 | 318 | 0.0 | 0.0 | 0.00 | 0.00 | 0.00 | 88 | 1008.8 |
| 20260505063258 | 49 | 318 | 0.0 | 0.0 | 0.00 | 0.00 | 0.00 | 88 | 1008.8 |
| 20260505062754 | 49 | 319 | 0.0 | 0.0 | 0.00 | 0.00 | 0.00 | 88 | 1008.9 |
| 20260505062252 | 49 | 319 | 0.0 | 0.0 | 0.00 | 0.00 | 0.00 | 88 | 1008.8 |
| 20260505061749 | 49 | 304 | 0.0 | 0.0 | 0.00 | 0.00 | 0.00 | 87 | 1009.0 |
| 20260505061247 | 49 | 303 | 0.0 | 0.0 | 0.00 | 0.00 | 0.00 | 87 | 1008.8 |
| 20260505060744 | 49 | 303 | 0.0 | 0.0 | 0.00 | 0.00 | 0.00 | 87 | 1008.9 |
| 20260505060241 | 50 | 303 | 0.0 | 0.0 | 0.00 | 0.00 | 0.00 | 86 | 1009.0 |
| 20260505055736 | 50 | 303 | 0.0 | 0.0 | 0.00 | 0.00 | 0.00 | 86 | 1008.8 |
| 20260505055233 | 50 | 303 | 0.0 | 0.0 | 0.00 | 0.00 | 0.00 | 86 | 1008.9 |
| 20260505054730 | 50 | 303 | 0.0 | 0.0 | 0.00 | 0.00 | 0.00 | 85 | 1008.9 |
| 20260505054228 | 50 | 302 | 0.0 | 0.0 | 0.00 | 0.00 | 0.00 | 85 | 1009.1 |
| 20260505053726 | 50 | 303 | 0.0 | 0.0 | 0.00 | 0.00 | 0.00 | 85 | 1009.1 |
| 20260505053222 | 50 | 302 | 0.0 | 0.0 | 0.00 | 0.00 | 0.00 | 84 | 1009.3 |
| 20260505052719 | 50 | 302 | 0.0 | 1.0 | 0.00 | 0.00 | 0.00 | 84 | 1009.0 |
| 20260505052216 | 50 | 297 | 0.0 | 0.0 | 0.00 | 0.00 | 0.00 | 83 | 1009.1 |
| 20260505051713 | 50 | 297 | 0.0 | 0.0 | 0.00 | 0.00 | 0.00 | 83 | 1009.4 |
| 20260505051211 | 51 | 296 | 0.0 | 0.0 | 0.00 | 0.00 | 0.00 | 83 | 1009.2 |
| 20260505050709 | 51 | 294 | 0.0 | 0.0 | 0.00 | 0.00 | 0.00 | 83 | 1009.2 |
| 20260505050207 | 51 | 298 | 0.0 | 0.0 | 0.00 | 0.00 | 0.00 | 83 | 1009.3 |
| 20260505041642 | 51 | 292 | 1.0 | 1.0 | 0.00 | 0.00 | 0.00 | 81 | 1009.1 |
| 20260505041140 | 52 | 290 | 0.0 | 0.0 | 0.00 | 0.00 | 0.00 | 80 | 1009.2 |
| 20260505040637 | 52 | 285 | 0.0 | 0.0 | 0.00 | 0.00 | 0.00 | 80 | 1009.2 |
| 20260505040134 | 52 | 285 | 0.0 | 0.0 | 0.00 | 0.00 | 0.00 | 79 | 1009.2 |
| 20260505035630 | 52 | 285 | 0.0 | 0.0 | 0.00 | 0.00 | 0.00 | 79 | 1009.3 |
| 20260505035126 | 53 | 286 | 0.0 | 0.0 | 0.00 | 0.00 | 0.00 | 78 | 1009.0 |
| 20260505034623 | 53 | 286 | 0.0 | 0.0 | 0.00 | 0.00 | 0.00 | 78 | 1009.1 |
| 20260505034120 | 53 | 284 | 0.0 | 1.0 | 0.00 | 0.00 | 0.00 | 77 | 1008.9 |
| 20260505033617 | 53 | 244 | 0.0 | 0.0 | 0.00 | 0.00 | 0.00 | 77 | 1009.0 |
| 20260505033115 | 54 | 241 | 0.0 | 0.0 | 0.00 | 0.00 | 0.00 | 76 | 1009.1 |
| 20260505032613 | 54 | 100 | 0.0 | 0.0 | 0.00 | 0.00 | 0.00 | 76 | 1009.1 |
| 20260505032109 | 54 | 243 | 0.0 | 0.0 | 0.00 | 0.00 | 0.00 | 75 | 1009.2 |
| 20260505031607 | 54 | 244 | 0.0 | 0.0 | 0.00 | 0.00 | 0.00 | 75 | 1009.0 |
| 20260505031103 | 54 | 336 | 0.0 | 0.0 | 0.00 | 0.00 | 0.00 | 75 | 1009.1 |
| 20260505030559 | 54 | 211 | 0.0 | 0.0 | 0.00 | 0.00 | 0.00 | 76 | 1008.9 |
| 20260505030055 | 54 | 219 | 0.0 | 0.0 | 0.00 | 0.00 | 0.00 | 75 | 1009.2 |
| 20260505025551 | 54 | 223 | 0.0 | 0.0 | 0.00 | 0.00 | 0.00 | 75 | 1009.3 |
| 20260505025050 | 55 | 318 | 0.0 | 0.0 | 0.00 | 0.00 | 0.00 | 73 | 1009.1 |
| 20260505024547 | 55 | 328 | 0.0 | 0.0 | 0.00 | 0.00 | 0.00 | 74 | 1009.1 |
| 20260505024044 | 55 | 329 | 0.0 | 0.0 | 0.00 | 0.00 | 0.00 | 73 | 1009.2 |
| 20260505023541 | 55 | 329 | 0.0 | 0.0 | 0.00 | 0.00 | 0.00 | 73 | 1009.1 |
| 20260505023039 | 55 | 330 | 1.0 | 1.0 | 0.00 | 0.00 | 0.00 | 72 | 1009.3 |
| 20260505022536 | 56 | 247 | 0.0 | 0.0 | 0.00 | 0.00 | 0.00 | 73 | 1009.1 |
| 20260505022033 | 56 | 235 | 1.0 | 1.0 | 0.00 | 0.00 | 0.00 | 73 | 1008.9 |
| 20260505021530 | 56 | 304 | 0.0 | 1.0 | 0.00 | 0.00 | 0.00 | 70 | 1009.1 |
| 20260505021027 | 56 | 306 | 0.0 | 0.0 | 0.00 | 0.00 | 0.00 | 70 | 1008.9 |
| 20260505020526 | 56 | 305 | 0.0 | 0.0 | 0.00 | 0.00 | 0.00 | 69 | 1009.0 |
| 20260505020024 | 57 | 261 | 0.0 | 0.0 | 0.00 | 0.00 | 0.00 | 69 | 1009.0 |
| 20260505015521 | 57 | 259 | 0.0 | 1.0 | 0.00 | 0.00 | 0.00 | 68 | 1008.9 |
| 20260505015018 | 57 | 261 | 0.0 | 1.0 | 0.00 | 0.00 | 0.00 | 67 | 1008.8 |
| 20260505014514 | 57 | 324 | 1.0 | 1.0 | 0.00 | 0.00 | 0.00 | 67 | 1009.0 |
| 20260505014012 | 57 | 223 | 0.0 | 0.0 | 0.00 | 0.00 | 0.00 | 67 | 1008.8 |
| 20260505013509 | 58 | 222 | 0.0 | 0.0 | 0.00 | 0.00 | 0.00 | 66 | 1008.7 |
| 20260505013006 | 58 | 222 | 0.0 | 0.0 | 0.00 | 0.00 | 0.00 | 65 | 1008.7 |
| 20260505012504 | 58 | 222 | 0.0 | 0.0 | 0.00 | 0.00 | 0.00 | 65 | 1008.6 |
| 20260505012001 | 59 | 222 | 0.0 | 0.0 | 0.00 | 0.00 | 0.00 | 64 | 1008.5 |
| 20260505011456 | 59 | 222 | 0.0 | 0.0 | 0.00 | 0.00 | 0.00 | 63 | 1008.4 |
| 20260505010954 | 60 | 222 | 0.0 | 1.0 | 0.00 | 0.00 | 0.00 | 62 | 1008.4 |
| 20260505010449 | 60 | 222 | 0.0 | 0.0 | 0.00 | 0.00 | 0.00 | 61 | 1008.1 |
| 20260505005945 | 60 | 157 | 0.0 | 0.0 | 0.00 | 0.00 | 0.00 | 60 | 1008.2 |
| 20260505005442 | 61 | 157 | 0.0 | 0.0 | 0.00 | 0.00 | 0.00 | 60 | 1008.2 |
| 20260505004940 | 61 | 157 | 0.0 | 0.0 | 0.00 | 0.00 | 0.00 | 57 | 1008.0 |
| 20260505004436 | 62 | 157 | 0.0 | 0.0 | 0.00 | 0.00 | 0.00 | 57 | 1008.1 |
| 20260505003933 | 62 | 156 | 0.0 | 0.0 | 0.00 | 0.00 | 0.00 | 56 | 1008.0 |
| 20260505003431 | 63 | 158 | 0.0 | 0.0 | 0.00 | 0.00 | 0.00 | 57 | 1007.9 |
| 20260505002927 | 64 | 157 | 0.0 | 1.0 | 0.00 | 0.00 | 0.00 | 54 | 1007.8 |
| 20260505002423 | 65 | 157 | 0.0 | 0.0 | 0.00 | 0.00 | 0.00 | 51 | 1007.6 |
| 20260505001922 | 66 | 209 | 0.0 | 0.0 | 0.00 | 0.00 | 0.00 | 47 | 1007.6 |
| 20260505001419 | 66 | 212 | 0.0 | 0.0 | 0.00 | 0.00 | 0.00 | 47 | 1007.4 |
| 20260505000916 | 67 | 237 | 0.0 | 0.0 | 0.00 | 0.00 | 0.00 | 44 | 1007.4 |
| 20260505000414 | 67 | 272 | 0.0 | 0.0 | 0.00 | 0.00 | 0.00 | 44 | 1007.4 |
| 20260504235910 | 68 | 273 | 1.0 | 1.0 | 0.00 | 0.00 | 0.00 | 44 | 1007.4 |
| 20260504235408 | 68 | 258 | 1.0 | 1.0 | 0.00 | 0.00 | 0.00 | 41 | 1007.2 |
| 20260504234903 | 68 | 280 | 1.0 | 1.0 | 0.00 | 0.00 | 0.00 | 42 | 1007.0 |
| 20260504234401 | 68 | 92 | 0.0 | 0.0 | 0.00 | 0.00 | 0.00 | 42 | 1006.9 |
| 20260504233857 | 69 | 297 | 0.0 | 0.0 | 0.00 | 0.00 | 0.00 | 41 | 1006.8 |
| 20260504233353 | 69 | 351 | 0.0 | 0.0 | 0.00 | 0.00 | 0.00 | 41 | 1006.9 |
| 20260504232850 | 69 | 297 | 0.0 | 0.0 | 0.00 | 0.00 | 0.00 | 40 | 1007.0 |
| 20260504232347 | 70 | 223 | 0.0 | 0.0 | 0.00 | 0.00 | 0.00 | 40 | 1006.6 |
| 20260504231844 | 70 | 276 | 0.0 | 0.0 | 0.00 | 0.00 | 0.00 | 41 | 1006.8 |
| 20260504231341 | 71 | 232 | 0.0 | 1.0 | 0.00 | 0.00 | 0.00 | 39 | 1006.7 |
| 20260504230837 | 71 | 316 | 3.0 | 6.0 | 0.00 | 0.00 | 0.00 | 39 | 1006.8 |
| 20260504230335 | 71 | 224 | 2.0 | 2.0 | 0.00 | 0.00 | 0.00 | 40 | 1006.7 |
| 20260504225833 | 71 | 346 | 1.0 | 2.0 | 0.00 | 0.00 | 0.00 | 37 | 1006.6 |
| 20260504225329 | 71 | 212 | 0.0 | 1.0 | 0.00 | 0.00 | 0.00 | 39 | 1006.4 |
| 20260504224827 | 71 | 205 | 1.0 | 2.0 | 0.00 | 0.00 | 0.00 | 37 | 1006.4 |
| 20260504224324 | 71 | 88 | 2.0 | 2.0 | 0.00 | 0.00 | 0.00 | 39 | 1006.3 |
| 20260504223820 | 72 | 254 | 2.0 | 4.0 | 0.00 | 0.00 | 0.00 | 37 | 1006.4 |
| 20260504223316 | 72 | 43 | 1.0 | 2.0 | 0.00 | 0.00 | 0.00 | 38 | 1006.4 |
| 20260504222813 | 72 | 241 | 0.0 | 1.0 | 0.00 | 0.00 | 0.00 | 38 | 1006.2 |
| 20260504222309 | 73 | 177 | 2.0 | 2.0 | 0.00 | 0.00 | 0.00 | 36 | 1006.4 |
| 20260504221808 | 73 | 221 | 2.0 | 3.0 | 0.00 | 0.00 | 0.00 | 36 | 1006.4 |
| 20260504221304 | 74 | 154 | 2.0 | 3.0 | 0.00 | 0.00 | 0.00 | 36 | 1006.3 |
| 20260504220801 | 73 | 200 | 2.0 | 2.0 | 0.00 | 0.00 | 0.00 | 35 | 1006.3 |
| 20260504220258 | 74 | 229 | 1.0 | 1.0 | 0.00 | 0.00 | 0.00 | 36 | 1006.4 |
| 20260504215755 | 73 | 242 | 1.0 | 1.0 | 0.00 | 0.00 | 0.00 | 34 | 1006.6 |
| 20260504215252 | 73 | 187 | 2.0 | 2.0 | 0.00 | 0.00 | 0.00 | 35 | 1006.5 |
| 20260504214747 | 73 | 10 | 1.0 | 2.0 | 0.00 | 0.00 | 0.00 | 35 | 1006.6 |
| 20260504214244 | 74 | 184 | 2.0 | 3.0 | 0.00 | 0.00 | 0.00 | 34 | 1006.7 |
| 20260504213741 | 75 | 218 | 2.0 | 4.0 | 0.00 | 0.00 | 0.00 | 33 | 1006.5 |
| 20260504213237 | 74 | 112 | 3.0 | 3.0 | 0.00 | 0.00 | 0.00 | 34 | 1006.8 |
| 20260504212735 | 73 | 218 | 2.0 | 2.0 | 0.00 | 0.00 | 0.00 | 34 | 1006.7 |
| 20260504212231 | 74 | 184 | 2.0 | 2.0 | 0.00 | 0.00 | 0.00 | 33 | 1006.8 |
| 20260504211729 | 75 | 290 | 0.0 | 1.0 | 0.00 | 0.00 | 0.00 | 32 | 1006.8 |
| 20260504211224 | 74 | 182 | 2.0 | 3.0 | 0.00 | 0.00 | 0.00 | 33 | 1006.9 |
| 20260504210722 | 74 | 208 | 1.0 | 2.0 | 0.00 | 0.00 | 0.00 | 32 | 1006.9 |
| 20260504210219 | 75 | 181 | 1.0 | 2.0 | 0.00 | 0.00 | 0.00 | 32 | 1007.0 |
| 20260504205716 | 75 | 194 | 4.0 | 6.0 | 0.00 | 0.00 | 0.00 | 32 | 1006.8 |
| 20260504205214 | 75 | 209 | 2.0 | 3.0 | 0.00 | 0.00 | 0.00 | 32 | 1006.9 |
| 20260504204712 | 75 | 173 | 2.0 | 2.0 | 0.00 | 0.00 | 0.00 | 33 | 1007.0 |
| 20260504204210 | 74 | 241 | 1.0 | 1.0 | 0.00 | 0.00 | 0.00 | 32 | 1007.3 |
| 20260504203709 | 73 | 218 | 2.0 | 2.0 | 0.00 | 0.00 | 0.00 | 33 | 1007.0 |
| 20260504203207 | 73 | 204 | 2.0 | 2.0 | 0.00 | 0.00 | 0.00 | 34 | 1006.9 |
| 20260504202706 | 73 | 202 | 2.0 | 3.0 | 0.00 | 0.00 | 0.00 | 33 | 1007.0 |
| 20260504202203 | 74 | 204 | 8.0 | 9.0 | 0.00 | 0.00 | 0.00 | 31 | 1007.2 |
| 20260504201700 | 74 | 218 | 4.0 | 6.0 | 0.00 | 0.00 | 0.00 | 31 | 1007.1 |
| 20260504201157 | 75 | 179 | 3.0 | 3.0 | 0.00 | 0.00 | 0.00 | 32 | 1007.2 |
| 20260504200655 | 76 | 219 | 5.0 | 6.0 | 0.00 | 0.00 | 0.00 | 31 | 1007.3 |
| 20260504200151 | 75 | 197 | 1.0 | 2.0 | 0.00 | 0.00 | 0.00 | 33 | 1007.2 |
| 20260504195647 | 74 | 71 | 2.0 | 2.0 | 0.00 | 0.00 | 0.00 | 36 | 1007.3 |
| 20260504195144 | 74 | 131 | 4.0 | 7.0 | 0.00 | 0.00 | 0.00 | 35 | 1007.3 |
| 20260504194641 | 72 | 272 | 2.0 | 3.0 | 0.00 | 0.00 | 0.00 | 33 | 1007.3 |
| 20260504194137 | 72 | 146 | 2.0 | 2.0 | 0.00 | 0.00 | 0.00 | 34 | 1007.5 |
| 20260504193633 | 72 | 214 | 4.0 | 8.0 | 0.00 | 0.00 | 0.00 | 34 | 1007.4 |
| 20260504193131 | 72 | 216 | 1.0 | 1.0 | 0.00 | 0.00 | 0.00 | 34 | 1007.4 |
| 20260504192629 | 72 | 202 | 1.0 | 1.0 | 0.00 | 0.00 | 0.00 | 34 | 1007.7 |
| 20260504192127 | 74 | 4 | 2.0 | 2.0 | 0.00 | 0.00 | 0.00 | 33 | 1007.8 |
| 20260504191625 | 72 | 86 | 2.0 | 2.0 | 0.00 | 0.00 | 0.00 | 34 | 1007.7 |
| 20260504191121 | 72 | 210 | 1.0 | 3.0 | 0.00 | 0.00 | 0.00 | 33 | 1007.6 |
| 20260504190617 | 73 | 202 | 2.0 | 3.0 | 0.00 | 0.00 | 0.00 | 35 | 1007.7 |
| 20260504190114 | 72 | 227 | 1.0 | 1.0 | 0.00 | 0.00 | 0.00 | 36 | 1007.8 |
| 20260504185610 | 72 | 223 | 2.0 | 3.0 | 0.00 | 0.00 | 0.00 | 35 | 1007.9 |
| 20260504185107 | 72 | 238 | 1.0 | 2.0 | 0.00 | 0.00 | 0.00 | 33 | 1007.8 |
| 20260504184603 | 71 | 39 | 2.0 | 3.0 | 0.00 | 0.00 | 0.00 | 37 | 1008.1 |
| 20260504184058 | 70 | 220 | 1.0 | 2.0 | 0.00 | 0.00 | 0.00 | 35 | 1008.0 |
| 20260504183555 | 70 | 297 | 4.0 | 4.0 | 0.00 | 0.00 | 0.00 | 34 | 1007.9 |
| 20260504183053 | 70 | 317 | 2.0 | 3.0 | 0.00 | 0.00 | 0.00 | 35 | 1007.9 |
| 20260504182550 | 70 | 213 | 1.0 | 1.0 | 0.00 | 0.00 | 0.00 | 35 | 1008.1 |
| 20260504182048 | 71 | 190 | 5.0 | 9.0 | 0.00 | 0.00 | 0.00 | 35 | 1008.1 |
| 20260504181544 | 72 | 215 | 4.0 | 4.0 | 0.00 | 0.00 | 0.00 | 32 | 1008.2 |
| 20260504181043 | 72 | 242 | 1.0 | 2.0 | 0.00 | 0.00 | 0.00 | 36 | 1008.3 |
| 20260504180541 | 72 | 266 | 1.0 | 1.0 | 0.00 | 0.00 | 0.00 | 36 | 1008.2 |
| 20260504180040 | 70 | 154 | 3.0 | 4.0 | 0.00 | 0.00 | 0.00 | 35 | 1008.5 |
| 20260504175537 | 71 | 25 | 2.0 | 3.0 | 0.00 | 0.00 | 0.00 | 37 | 1008.6 |
| 20260504175034 | 70 | 38 | 0.0 | 1.0 | 0.00 | 0.00 | 0.00 | 36 | 1008.4 |
| 20260504174531 | 70 | 19 | 2.0 | 3.0 | 0.00 | 0.00 | 0.00 | 36 | 1008.4 |
| 20260504174028 | 71 | 131 | 3.0 | 3.0 | 0.00 | 0.00 | 0.00 | 35 | 1008.8 |
| 20260504173525 | 72 | 337 | 2.0 | 2.0 | 0.00 | 0.00 | 0.00 | 36 | 1008.6 |
| 20260504173022 | 72 | 79 | 4.0 | 4.0 | 0.00 | 0.00 | 0.00 | 36 | 1008.6 |
| 20260504172518 | 71 | 5 | 1.0 | 2.0 | 0.00 | 0.00 | 0.00 | 35 | 1009.0 |
| 20260504172015 | 71 | 117 | 3.0 | 7.0 | 0.00 | 0.00 | 0.00 | 38 | 1008.9 |
| 20260504171512 | 71 | 189 | 6.0 | 10.0 | 0.00 | 0.00 | 0.00 | 34 | 1008.9 |
| 20260504171009 | 72 | 32 | 2.0 | 2.0 | 0.00 | 0.00 | 0.00 | 33 | 1009.1 |
| 20260504170504 | 71 | 322 | 2.0 | 2.0 | 0.00 | 0.00 | 0.00 | 33 | 1009.0 |
| 20260504160425 | 68 | 163 | 4.0 | 6.0 | 0.00 | 0.00 | 0.00 | 35 | 1009.7 |
| 20260504150848 | 66 | 222 | 1.0 | 2.0 | 0.00 | 0.00 | 0.00 | 40 | 1010.4 |
| 20260504150345 | 66 | 345 | 2.0 | 6.0 | 0.00 | 0.00 | 0.00 | 38 | 1010.7 |
| 20260504141315 | 62 | 212 | 2.0 | 3.0 | 0.00 | 0.00 | 0.00 | 46 | 1011.0 |
| 20260504140812 | 61 | 119 | 1.0 | 1.0 | 0.00 | 0.00 | 0.00 | 45 | 1011.3 |
| 20260504140308 | 60 | 325 | 0.0 | 0.0 | 0.00 | 0.00 | 0.00 | 45 | 1011.3 |
| 20260504130737 | 55 | 124 | 1.0 | 2.0 | 0.00 | 0.00 | 0.00 | 52 | 1011.8 |
| 20260504130232 | 54 | 93 | 1.0 | 1.0 | 0.00 | 0.00 | 0.00 | 53 | 1011.8 |
| 20260504120156 | 47 | 197 | 1.0 | 1.0 | 0.00 | 0.00 | 0.00 | 71 | 1012.6 |